Torna al catalogo

COSMOS 2491 DEB

AttivoPO
NORAD 45030·DEBRIS·🇷🇺 Russia

Lanciato Dec 25, 2013 da Plesetsk Cosmodrome

Loading…

Prossimi Passaggi (prossime 24 ore)

TLE

AggiornatoSource: Space-Track

Epoca: Sep 11, 2026, 03:27 UTC

1 45030U 13076T   26254.14393997  .00004266  00000-0  17529-1 0  9996
2 45030  82.3972  43.2525 0289320 281.5616  75.3135 12.72417232307048

Traccia COSMOS 2491 DEB in tempo reale con AllMySat

Download on the App Store